This demonstration page uses our WeatherBlox Daily Observations layout. Learn more.

Left ArrowRight Arrow

39.08367, -84.50855

Hourly Observations for April 8, 2017

Temp ( °F °C ) Dew Point ( °F °C ) Humidity (%) Winds ( mph kmh ) Pressure ( in mb ) Visibility ( mi km ) Precip ( " mm )
12:53 am 00:53 Clear 45 7.2 22 -5.6 40 40 VRB 3 6 30.09 1019 10 16.0934 0 0
1:53 am 01:53 Clear 43 6.1 21 -6.1 42 42 NW 5 7 30.09 1019 10 16.0934 0 0
2:53 am 02:53 Clear 40 4.4 23 -5 51 51 NW 3 6 30.09 1019 10 16.0934 0 0
3:53 am 03:53 Clear 37 2.8 29 -1.7 73 73 Calm 30.09 1019 10 16.0934 0 0
4:53 am 04:53 Clear 33 0.6 30 -1.1 89 89 Calm 30.1 1019 10 16.0934 0 0
5:53 am 05:53 Clear 32 0 29 -1.7 88 88 Calm 30.11 1020 10 16.0934 0 0
6:53 am 06:53 Clear 32 0 30 -1.1 92 92 Calm 30.13 1020 10 16.0934 0 0
7:53 am 07:53 Sunny 33 0.6 31 -0.6 92 92 Calm 30.16 1021 10 16.0934 0 0
8:53 am 08:53 Sunny 40 4.4 33 0.6 77 77 Calm 30.18 1022 10 16.0934 0 0
9:53 am 09:53 Sunny 44 6.7 30 -1.1 58 58 Calm 30.17 1022 10 16.0934 0 0
10:53 am 10:53 Sunny 50 10 30 -1.1 46 46 Calm 30.17 1022 10 16.0934 0 0
11:53 am 11:53 Sunny 54 12.2 30 -1.1 40 40 E 7 11 30.16 1022 10 16.0934 0 0
12:53 pm 12:53 Sunny 57 13.9 30 -1.1 36 36 VRB 3 6 30.15 1021 10 16.0934 0 0
1:53 pm 13:53 Sunny 59 15 30 -1.1 33 33 SW 8 13 30.12 1020 10 16.0934 0 0
2:53 pm 14:53 Sunny 60 15.6 30 -1.1 32 32 Calm 30.09 1019 10 16.0934 0 0
3:53 pm 15:53 Sunny 62 16.7 32 0 32 32 SSE 3 6 30.08 1019 10 16.0934 0 0
4:53 pm 16:53 Sunny 63 17.2 34 1.1 34 34 S 6 9 30.06 1018 10 16.0934 0 0
5:53 pm 17:53 Sunny 63 17.2 34 1.1 34 34 SW 6 9 30.05 1018 10 16.0934 0 0
6:53 pm 18:53 Sunny 62 16.7 34 1.1 35 35 WSW 8 13 30.04 1017 10 16.0934 0 0
7:53 pm 19:53 Sunny 59 15 33 0.6 38 38 SSW 5 7 30.04 1017 10 16.0934 0 0
8:53 pm 20:53 Clear 50 10 38 3.3 63 63 Calm 30.02 1017 10 16.0934 0 0
9:53 pm 21:53 Clear 48 8.9 38 3.3 68 68 Calm 30.04 1017 10 16.0934 0 0
10:53 pm 22:53 Clear 47 8.3 40 4.4 77 77 Calm 30.05 1018 10 16.0934 0 0
11:53 pm 23:53 Clear 47 8.3 39 3.9 74 74 Calm 30.05 1018 10 16.0934 0 0

Powered by AerisWeather